Weather History for KCQF - April, 2014

Change the Weather History Date:

Sunday, April 27, 2014

  Actual Average (KBFM) Record (KBFM)
Temperature  
Mean Temperature 73 °F -  
Max Temperature 80 °F 76 °F 84 °F (2011)
Min Temperature 66 °F 58 °F 48 °F (2001)
Cooling Degree Days 8    
Growing Degree Days 23 (Base 50)    
Moisture  
Dew Point 69 °F    
Average Humidity 87    
Maximum Humidity 100    
Minimum Humidity 69    
Precipitation  
Precipitation 0.00 in - - ()
Sea Level Pressure  
Sea Level Pressure 29.90 in    
Wind  
Wind Speed 7 mph (SSE)    
Max Wind Speed 23 mph    
Max Gust Speed 31 mph    
Visibility 8 miles    
Events Fog    
Averages and records for this station are not official NWS values.
T = Trace of Precipitation, MM = Missing Value Source: NWS Daily Summary

Daily Weather History Graph

Daily Weather History Graph

Search for Another Location

Airport or City:

Trip Planner

Search our weather history database for the weather conditions in past years. The results will help you decide how hot, cold, wet, or windy it might be!

Date:

Astronomy

Apr. 27, 2014 Rise Set
Actual Time 6:11 AM CDT 7:27 PM CDT
Civil Twilight 5:46 AM CDT 7:52 PM CDT
Nautical Twilight 5:16 AM CDT 8:22 PM CDT
Astronomical Twilight 4:45 AM CDT 8:53 PM CDT
Moon 5:03 AM CDT (4/27) 6:06 PM CDT (4/27)
Length of Visible Light 14h 05m
Length of Day
13h 15m
Waning Crescent, 3% of the Moon is Illuminated
Apr 27
Waning Crescent
Apr 29
New
May 6
First Quarter
May 14
Full
May 21
Last Quarter

Hourly Weather History & Observations

Time (CDT) Temp. Heat Index Dew Point Humidity Pressure Visibility Wind Dir Wind Speed Gust Speed Precip Events Conditions
12:15 AM 69.8 °F - 68.0 °F 94% 29.96 in 10.0 mi SSE 3.5 mph - N/A   Clear
12:35 AM 69.8 °F - 68.0 °F 94% 29.95 in 10.0 mi South 3.5 mph - N/A   Clear
1:15 AM 69.8 °F - 68.0 °F 94% 29.94 in 10.0 mi Calm Calm - N/A   Clear
1:35 AM 69.8 °F - 68.0 °F 94% 29.93 in 7.0 mi Calm Calm - N/A   Clear
1:55 AM 68.0 °F - 66.2 °F 94% 29.93 in 7.0 mi Calm Calm - N/A   Clear
2:15 AM 66.2 °F - 66.2 °F 100% 29.93 in 5.0 mi Calm Calm - N/A   Clear
2:35 AM 68.0 °F - 66.2 °F 94% 29.92 in 4.0 mi Calm Calm - N/A   Scattered Clouds
2:55 AM 68.0 °F - 68.0 °F 100% 29.92 in 2.0 mi Calm Calm - N/A   Overcast
3:15 AM 68.0 °F - 68.0 °F 100% 29.91 in 0.8 mi Calm Calm - N/A   Overcast
3:35 AM 68.0 °F - 68.0 °F 100% 29.92 in 0.5 mi Calm Calm - N/A Fog Fog
3:55 AM 68.0 °F - 68.0 °F 100% 29.91 in 2.5 mi Calm Calm - N/A   Overcast
4:15 AM 68.0 °F - 68.0 °F 100% 29.91 in 4.0 mi Calm Calm - N/A   Scattered Clouds
4:35 AM 68.0 °F - 68.0 °F 100% 29.91 in 4.0 mi ESE 3.5 mph - N/A   Scattered Clouds
4:55 AM 68.0 °F - 68.0 °F 100% 29.90 in 4.0 mi Calm Calm - N/A   Mostly Cloudy
5:15 AM 69.8 °F - 69.8 °F 100% 29.91 in 5.0 mi ESE 3.5 mph - N/A   Overcast
5:35 AM 69.8 °F - 69.8 °F 100% 29.90 in 5.0 mi ESE 3.5 mph - N/A   Overcast
5:55 AM 69.8 °F - 69.8 °F 100% 29.91 in 7.0 mi Calm Calm - N/A   Overcast
6:15 AM 69.8 °F - 69.8 °F 100% 29.92 in 5.0 mi SE 5.8 mph - N/A   Mostly Cloudy
6:35 AM 69.8 °F - 69.8 °F 100% 29.93 in 5.0 mi Calm Calm - N/A   Overcast
6:55 AM 69.8 °F - 69.8 °F 100% 29.92 in 5.0 mi ESE 4.6 mph - N/A   Mostly Cloudy
7:15 AM 71.6 °F - 69.8 °F 94% 29.93 in 7.0 mi ESE 4.6 mph - N/A   Scattered Clouds
7:35 AM 71.6 °F - 71.6 °F 100% 29.95 in 7.0 mi Calm Calm - N/A   Mostly Cloudy
7:55 AM 71.6 °F - 71.6 °F 100% 29.94 in 10.0 mi ESE 4.6 mph - N/A   Overcast
8:15 AM 71.6 °F - 71.6 °F 100% 29.94 in 10.0 mi ESE 3.5 mph - N/A   Mostly Cloudy
8:35 AM 71.6 °F - 71.6 °F 100% 29.94 in 10.0 mi SSE 6.9 mph - N/A   Mostly Cloudy
9:15 AM 73.4 °F - 69.8 °F 88% 29.94 in 10.0 mi SE 9.2 mph - N/A   Mostly Cloudy
9:35 AM 75.2 °F - 69.8 °F 83% 29.94 in 10.0 mi SSE 13.8 mph - N/A   Scattered Clouds
9:55 AM 73.4 °F - 69.8 °F 88% 29.94 in 10.0 mi SSE 13.8 mph - N/A   Scattered Clouds
10:15 AM 77.0 °F - 69.8 °F 78% 29.95 in 10.0 mi SSE 11.5 mph - N/A   Mostly Cloudy
10:35 AM 77.0 °F - 69.8 °F 78% 29.95 in 10.0 mi South 16.1 mph 21.9 mph N/A   Mostly Cloudy
10:55 AM 77.0 °F - 69.8 °F 78% 29.94 in 10.0 mi South 15.0 mph 19.6 mph N/A   Overcast
11:15 AM 77.0 °F - 68.0 °F 74% 29.94 in 10.0 mi South 17.3 mph 23.0 mph N/A   Overcast
11:35 AM 77.0 °F - 68.0 °F 74% 29.94 in 10.0 mi South 18.4 mph - N/A   Mostly Cloudy
11:55 AM 78.8 °F - 68.0 °F 69% 29.94 in 10.0 mi South 15.0 mph 18.4 mph N/A   Mostly Cloudy
12:15 PM 77.0 °F - 68.0 °F 74% 29.93 in 10.0 mi South 16.1 mph 23.0 mph N/A   Mostly Cloudy
12:35 PM 77.0 °F - 68.0 °F 74% 29.92 in 10.0 mi SSE 13.8 mph - N/A   Overcast
12:55 PM 77.0 °F - 68.0 °F 74% 29.91 in 10.0 mi South 19.6 mph 23.0 mph N/A   Overcast
1:15 PM 78.8 °F - 68.0 °F 69% 29.90 in 10.0 mi SSE 17.3 mph 25.3 mph N/A   Overcast
1:35 PM 78.8 °F - 68.0 °F 69% 29.90 in 10.0 mi SSE 23.0 mph 27.6 mph N/A   Overcast
1:55 PM 78.8 °F - 68.0 °F 69% 29.89 in 10.0 mi SSE 17.3 mph 27.6 mph N/A   Mostly Cloudy
2:15 PM 78.8 °F - 68.0 °F 69% 29.89 in 10.0 mi SSE 17.3 mph 31.1 mph N/A   Mostly Cloudy
2:35 PM 77.0 °F - 68.0 °F 74% 29.88 in 10.0 mi SSE 20.7 mph 27.6 mph N/A   Mostly Cloudy
2:55 PM 78.8 °F - 68.0 °F 69% 29.88 in 10.0 mi SSE 18.4 mph 27.6 mph N/A   Mostly Cloudy
3:15 PM 78.8 °F - 68.0 °F 69% 29.87 in 10.0 mi SSE 20.7 mph 25.3 mph N/A   Mostly Cloudy
3:35 PM 80.6 °F 83.9 °F 69.8 °F 70% 29.86 in 10.0 mi SSE 21.9 mph 27.6 mph N/A   Scattered Clouds
3:55 PM 78.8 °F - 68.0 °F 69% 29.86 in 10.0 mi SSE 17.3 mph 23.0 mph N/A   Mostly Cloudy
4:15 PM 78.8 °F - 68.0 °F 69% 29.86 in 10.0 mi SSE 18.4 mph 27.6 mph N/A   Mostly Cloudy
4:35 PM 77.0 °F - 68.0 °F 74% 29.85 in 10.0 mi SE 16.1 mph 20.7 mph N/A   Mostly Cloudy
5:15 PM 77.0 °F - 68.0 °F 74% 29.84 in 10.0 mi SSE 11.5 mph 18.4 mph N/A   Clear
5:35 PM 77.0 °F - 68.0 °F 74% 29.85 in 10.0 mi SSE 16.1 mph 20.7 mph N/A   Clear
5:55 PM 77.0 °F - 68.0 °F 74% 29.85 in 10.0 mi SSE 12.7 mph 18.4 mph N/A   Scattered Clouds
6:15 PM 75.2 °F - 68.0 °F 78% 29.85 in 10.0 mi SSE 11.5 mph - N/A   Mostly Cloudy
6:35 PM 75.2 °F - 69.8 °F 83% 29.85 in 10.0 mi SE 10.4 mph 17.3 mph N/A   Scattered Clouds
6:55 PM 73.4 °F - 69.8 °F 88% 29.85 in 10.0 mi SE 10.4 mph 18.4 mph N/A   Scattered Clouds
7:15 PM 73.4 °F - 68.0 °F 83% 29.86 in 10.0 mi SSE 11.5 mph - N/A   Scattered Clouds
7:35 PM 73.4 °F - 69.8 °F 88% 29.86 in 10.0 mi SE 10.4 mph - N/A   Mostly Cloudy
7:55 PM 73.4 °F - 69.8 °F 88% 29.85 in 10.0 mi SSE 11.5 mph - N/A   Overcast
8:15 PM 73.4 °F - 69.8 °F 88% 29.85 in 10.0 mi SE 9.2 mph - N/A   Mostly Cloudy
8:35 PM 71.6 °F - 69.8 °F 94% 29.85 in 10.0 mi SE 10.4 mph - N/A   Mostly Cloudy
8:55 PM 71.6 °F - 69.8 °F 94% 29.85 in 10.0 mi SE 6.9 mph 16.1 mph N/A   Overcast
9:15 PM 73.4 °F - 69.8 °F 88% 29.86 in 10.0 mi SE 5.8 mph - N/A   Overcast
9:35 PM 73.4 °F - 69.8 °F 88% 29.85 in 10.0 mi SE 8.1 mph 16.1 mph N/A   Overcast
9:55 PM 73.4 °F - 69.8 °F 88% 29.85 in 10.0 mi SE 10.4 mph 17.3 mph N/A   Overcast
10:15 PM 73.4 °F - 69.8 °F 88% 29.85 in 10.0 mi SE 11.5 mph - N/A   Overcast
10:35 PM 73.4 °F - 69.8 °F 88% 29.84 in 10.0 mi SE 11.5 mph 16.1 mph N/A   Mostly Cloudy
10:55 PM 73.4 °F - 69.8 °F 88% 29.84 in 10.0 mi SSE 11.5 mph 16.1 mph N/A   Overcast
11:15 PM 73.4 °F - 69.8 °F 88% 29.85 in 10.0 mi SSE 11.5 mph 18.4 mph N/A   Overcast
11:35 PM 73.4 °F - 71.6 °F 94% 29.84 in 10.0 mi SSE 13.8 mph 19.6 mph N/A   Overcast
11:55 PM 73.4 °F - 71.6 °F 94% 29.85 in 10.0 mi SSE 12.7 mph 17.3 mph N/A   Overcast